Notices

What's New in latest Release from April 7th, 2021:

- Updated Glossary, including Speed of Maximum Gust, and Total Hourly Precipitation

- Updated national and regional climate services offices contacts and prices information

- Addition of station inventory lists for 1981-2010, 1971-2000, and 1961-1990 Normals.

If you haven't already, please take our survey and provide feedback about our website: https://eccc.sondage-survey.ca/f/LanguageSelection.aspx?s=442ca660-fcf1-47c0-95a9-59707d6fd709

Hourly Data Report for November 21, 2019

QUALICUM BEACH AIRPORT
BRITISH COLUMBIA
Current Station Operator: ECCC - MSC

49°20'14.000" N
124°23'38.000" W
58.20 m
1026562
71766
VOQ

Download Data

Hourly Data (November 2019)
Hourly Data Report for November 21, 2019
TIME
LST
Temp Definition
°C
Dew Point Definition
°C
Rel Hum Definition
%
Precip. Amount Definition
mm

Wind Dir Definition
10's deg

Wind Spd Definition
km/h
Visibility Definition
km
Stn Press Definition
kPa
Hmdx Definition


Wind Chill Definition


Weather Definition


00:00 -0.4 -0.5 99 LegendMM 24 2   101.17   -1 LegendNANA
01:00 -0.7 -0.8 99 LegendMM 26 2   101.15   -1 LegendNANA
02:00 -0.6 -0.7 99 LegendMM 24 2   101.10   -1 LegendNANA
03:00 -0.7 -0.8 99 LegendMM 25 2   101.07   -1 LegendNANA
04:00 -0.9 -1.0 99 LegendMM   0   101.02     LegendNANA
05:00 -0.4 -0.5 99 LegendMM 25 2   101.03   -1 LegendNANA
06:00 -0.1 -0.2 99 LegendMM 25 2   101.01   -1 LegendNANA
07:00 -0.3 -0.5 99 LegendMM 25 2   101.01   -1 LegendNANA
08:00 -0.5 -0.6 99 LegendMM 24 1   100.99   -1 LegendNANA
09:00 0.3 0.1 99 LegendMM 22 1   100.96     LegendNANA
10:00 3.3 3.1 99 LegendMM 24 6   100.98     LegendNANA
11:00 4.1 3.6 97 LegendMM 23 5   100.95     LegendNANA
12:00 5.7 4.4 91 LegendMM 17 2   100.84     LegendNANA
13:00 6.8 3.7 81 LegendMM 27 2   100.79     LegendNANA
14:00 7.6 4.1 79 LegendMM 6 4   100.77     LegendNANA
15:00 7.0 4.1 82 LegendMM 9 4   100.76     LegendNANA
16:00 5.6 3.6 87 LegendMM 0 1   100.81     LegendNANA
17:00 3.7 3.0 95 LegendMM 26 1   100.87     LegendNANA
18:00 2.1 1.6 97 LegendMM 0 1   100.93     LegendNANA
19:00 1.8 1.5 98 LegendMM 27 2   100.99     LegendNANA
20:00 1.5 1.3 98 LegendMM 31 4   101.04     LegendNANA
21:00 0.9 0.7 99 LegendMM 23 2   101.15     LegendNANA
22:00 0.8 0.6 99 LegendMM 30 4   101.21     LegendNANA
23:00 -0.5 -0.6 99 LegendMM 24 2   101.27   -1 LegendNANA

Notes on Data Quality.

Legend

  • E = Estimated
  • M = Missing
  • NA = Not Available*
  • [empty] = Indicates an unobserved value
Date modified: